Location: Iesi
(43.5167°N, 13.2333°E)
Time: 03:25:48
(UTC+00:00)

DMSP B5D2-2 - Pass Details

Date: 08 August 2020
Orbit: 791 x 805 km, 98.3° (Epoch: 25 September)

Event Time Altitude Azimuth Distance (km) Brightness Sun altitude
Rises 18:58:52 0° 14° (NNE) 3,302 7.5 -7.1°
Reaches altitude 10° 19:01:13 10° 16° (NNE) 2,370 6.7 -7.5°
Maximum altitude 19:06:27 77° 103° (ESE) 821 4.0 -8.3°
Drops below altitude 10° 19:11:41 10° 189° (S) 2,361 6.3 -9.1°
Sets 19:14:00 0° 191° (S) 3,289 7.1 -9.5°
